• Join FlightAware (Why Join?)
  • Login
  • US Flag 
09:37PM EDT


 

Airport Tracker/Info


-or-


 

Live Flight TrackerFlight Track Log ✈ N57HC ✈ 13-Sep-2013 ✈ KBED - KFOK

Flight Track Log - Related Links

Times and Time Zones

All times are in EDT time to prevent confusion due to time zone crossing. See the N57HC flight status page for this flight to view local times or setup timezone preferences in your user account.

Time Position Orientation Groundspeed Altitude Reporting Facility
EDT Latitude Longitude Course Direction KTS MPH feet Rate Location/Type
05:48PM 42.4667 -71.3167 206° Southwest 179 206 1,300  Level KA90
05:50PM 42.3667 -71.3833 206° Southwest 255 293 3,500 2,400 Climbing KA90
05:51PM 42.3667 -71.4500 270° West 206 237 7,300 3,240 Climbing KA90
05:52PM 42.3000 -71.5167 216° Southwest 236 272 10,000 1,260 Climbing KA90
05:53PM 42.2408 -71.5875 222° Southwest 300 345 10,100  Climbing Boston Center
05:54PM 42.1933 -71.6556 227° Southwest 291 335 10,100  Level Boston Center
05:55PM 42.1669 -71.7650 252° West 294 338 10,100 -120 Level Boston Center
05:55PM 42.1444 -71.8156 239° Southwest 293 337 10,000 -120 Descending Boston Center
05:56PM 42.1258 -71.8606 241° Southwest 293 337 10,000  Level Boston Center
05:57PM 42.0783 -71.9533 235° Southwest 294 338 10,000  Level Boston Center
05:58PM 42.0267 -72.0461 233° Southwest 304 350 10,000  Level Boston Center
05:59PM 41.9433 -72.0353 174° South 303 349 10,000  Level Boston Center
06:00PM 41.8556 -72.0192 172° South 306 352 10,000 -60 Level Boston Center
06:01PM 41.7722 -72.0169 179° South 301 346 9,900 -60 Descending Boston Center
06:02PM 41.6847 -72.0064 175° South 310 357 9,900  Level Boston Center
06:03PM 41.6014 -72.0069 180° South 304 350 9,900 -180 Level Boston Center
06:04PM 41.5117 -72.0103 182° South 321 369 9,600 -480 Descending Boston Center
06:05PM 41.4244 -72.0331 191° South 289 333 8,900 -900 Descending Boston Center
06:07PM 41.2833 -72.0833 195° South 282 325 7,100 -1,020 Descending New York TRACON
06:08PM 41.2167 -72.1167 201° Southwest 264 304 6,100 -600 Descending New York TRACON
06:09PM 41.1667 -72.1833 225° Southwest 267 307 6,000 -60 Descending New York TRACON
06:10PM 41.1167 -72.2500 225° Southwest 260 299 6,000 -420 Level New York TRACON
06:11PM 41.0667 -72.3167 225° Southwest 268 308 5,200 -1,500 Descending New York TRACON
06:12PM 41.0000 -72.3833 217° Southwest 266 306 3,100 -1,620 Descending New York TRACON
06:13PM 40.9667 -72.4667 242° Southwest 250 288 2,000 -600 Descending New York TRACON
06:14PM 40.9167 -72.5333 225° Southwest 245 282 2,000 -600 Level New York TRACON
06:15PM 40.8833 -72.5833 229° Southwest 189 217 800 -1,200 Descending New York TRACON
06:17PM 40.8333 -72.6167 246° West  Level FlightAware Approximate
06:24PM 40.8437 -72.6318 246° West  Level Estimated
06:25PM 40.8437 -72.6318 246° West  Level Estimated